YO6IKB-10 Weather Reports


time (UTC)temp
F
wind
direction
speed
knots
gust
knots
rain 1hr
in
rain 24hr
in
rain mn
in
humidity
%
barometer
mb
20260902123111 82 315 1.7 5.2 0.00 0.00 0.00 45 1016.0
20260902122611 82 292 3.5 7.8 0.00 0.00 0.00 45 1016.1
20260902122111 82 315 3.5 7.0 0.00 0.00 0.00 46 1016.1
20260902121610 82 292 2.6 8.7 0.00 0.00 0.00 46 1016.1
20260902121110 82 292 3.5 8.7 0.00 0.00 0.00 46 1016.1
20260902120610 82 292 0.9 11.3 0.00 0.00 0.00 46 1016.1
20260902120109 82 315 5.2 8.7 0.00 0.00 0.00 46 1016.2
20260902115609 82 292 1.7 7.8 0.00 0.00 0.00 45 1016.2
20260902115109 82 315 6.1 7.0 0.00 0.00 0.00 46 1016.4
20260902114608 82 292 0.0 4.3 0.00 0.00 0.00 46 1016.4
20260902114108 82 292 0.9 7.0 0.00 0.00 0.00 46 1016.4
20260902113608 82 292 0.0 7.0 0.00 0.00 0.00 48 1016.4
20260902113108 81 292 3.5 4.3 0.00 0.00 0.00 48 1016.5
20260902112607 81 337 0.9 1.7 0.00 0.00 0.00 46 1016.5
20260902112107 81 292 1.7 6.1 0.00 0.00 0.00 46 1016.5
20260902111607 82 315 5.2 9.6 0.00 0.00 0.00 45 1016.7
20260902111106 83 202 0.9 6.1 0.00 0.00 0.00 46 1016.6
20260902110606 83 292 5.2 9.6 0.00 0.00 0.00 46 1016.5
20260902110106 83 337 0.9 3.5 0.00 0.00 0.00 46 1016.5
20260902105606 83 315 0.0 4.3 0.00 0.00 0.00 47 1016.6
20260902105105 82 292 1.7 6.1 0.00 0.00 0.00 48 1016.6
20260902104605 82 292 2.6 5.2 0.00 0.00 0.00 48 1016.6
20260902104105 82 292 2.6 7.0 0.00 0.00 0.00 46 1016.7
20260902103604 83 22 3.5 6.1 0.00 0.00 0.00 45 1016.6
20260902103104 83 337 4.3 7.0 0.00 0.00 0.00 47 1016.6
20260902102604 82 292 0.0 7.8 0.00 0.00 0.00 47 1016.6
20260902102105 82 225 7.0 8.7 0.00 0.00 0.00 48 1016.5
20260902101603 82 22 4.3 7.0 0.00 0.00 0.00 46 1016.7
20260902101103 82 292 2.6 12.2 0.00 0.00 0.00 47 1016.7
20260902100603 82 315 4.3 8.7 0.00 0.00 0.00 46 1016.8
20260902100104 83 0 2.6 6.1 0.00 0.00 0.00 44 1016.8
20260902095602 83 292 3.5 7.8 0.00 0.00 0.00 47 1016.9
20260902095102 83 292 1.7 5.2 0.00 0.00 0.00 47 1016.9
20260902094601 82 292 4.3 7.8 0.00 0.00 0.00 48 1016.9